Printer-friendly version

IAU Minor Planet Center

Minor Planet Center

(10) Hygiea

Orbital Elements

The following orbital elements are taken from MPC 35055:
   (10) Hygiea
Epoch 2007 Apr. 10.0 TT = JDT 2454200.5                 Goffin
M  91.71482              (2000.0)            P               Q
n   0.17741509     Peri.  313.03458     -0.55047063     +0.83230695
a   3.1367195      Node   283.45639     -0.74516121     -0.52503101
e   0.1179048      Incl.    3.84230     -0.37645300     -0.17778522
P   5.56           H    5.43          G   0.15           U   0
From 2261 observations at 104 oppositions, 1849-1999, mean residual 0".53.
An explanation of the orbital elements is available.

These orbital elements are also available in forms suitable for loading into a number of popular planetarium-type software programs.


Ephemeris

The following ephemeris is at intervals of five days. A daily ephemeris covering the same time interval is also available.

Personalized ephemerides for this object (and others) can be generated using the MPES.

Date    TT    R. A. (2000) Decl.     Delta      r     Elong.  Phase     V
 
2007 07 10    00 47.44   +09 21.3    3.078    3.287    92.7    18.0    11.4
2007 07 15    00 49.73   +09 42.7    3.013    3.292    96.8    17.9    11.3
2007 07 20    00 51.62   +10 01.7    2.948    3.297   101.0    17.6    11.3
2007 07 25    00 53.10   +10 18.3    2.885    3.302   105.4    17.3    11.2
2007 07 30    00 54.14   +10 32.3    2.822    3.307   109.8    16.8    11.2
2007 08 04    00 54.73   +10 43.6    2.762    3.312   114.3    16.2    11.1
2007 08 09    00 54.84   +10 51.9    2.704    3.316   119.0    15.5    11.0
2007 08 14    00 54.47   +10 57.2    2.649    3.321   123.8    14.7    11.0
2007 08 19    00 53.61   +10 59.3    2.597    3.326   128.8    13.7    10.9
2007 08 24    00 52.28   +10 58.2    2.549    3.330   133.9    12.6    10.8
2007 08 29    00 50.48   +10 53.8    2.505    3.335   139.1    11.4    10.7
2007 09 03    00 48.24   +10 46.1    2.467    3.340   144.4    10.1    10.7
2007 09 08    00 45.59   +10 35.2    2.434    3.344   149.8     8.7    10.6
2007 09 13    00 42.59   +10 21.2    2.407    3.348   155.3     7.2    10.5
2007 09 18    00 39.30   +10 04.3    2.387    3.353   160.9     5.6    10.4
2007 09 23    00 35.79   +09 45.0    2.374    3.357   166.3     4.1    10.3
2007 09 28    00 32.15   +09 23.6    2.367    3.361   171.4     2.6    10.2
2007 10 03    00 28.46   +09 00.7    2.368    3.366   174.5     1.6    10.1
2007 10 08    00 24.80   +08 36.7    2.376    3.370   172.5     2.2    10.2
2007 10 13    00 21.27   +08 12.3    2.392    3.374   167.7     3.6    10.3
2007 10 18    00 17.95   +07 48.1    2.415    3.378   162.3     5.2    10.4
2007 10 23    00 14.92   +07 24.7    2.445    3.382   156.7     6.7    10.5
2007 10 28    00 12.24   +07 02.6    2.482    3.386   151.1     8.2    10.6
2007 11 02    00 09.96   +06 42.3    2.525    3.390   145.5     9.5    10.7
2007 11 07    00 08.12   +06 24.2    2.573    3.394   140.1    10.8    10.8
2007 11 12    00 06.75   +06 08.7    2.628    3.397   134.7    12.0    10.9
2007 11 17    00 05.86   +05 55.9    2.687    3.401   129.4    13.0    11.0
2007 11 22    00 05.47   +05 46.1    2.750    3.405   124.2    13.9    11.1
2007 11 27    00 05.56   +05 39.3    2.817    3.408   119.2    14.6    11.2
2007 12 02    00 06.12   +05 35.6    2.886    3.412   114.3    15.3    11.2
2007 12 07    00 07.15   +05 34.9    2.959    3.415   109.4    15.8    11.3
2007 12 12    00 08.63   +05 37.3    3.033    3.419   104.7    16.2    11.4
2007 12 17    00 10.52   +05 42.5    3.109    3.422   100.1    16.4    11.4
2007 12 22    00 12.82   +05 50.5    3.186    3.426    95.6    16.6    11.5
2007 12 27    00 15.49   +06 01.2    3.264    3.429    91.2    16.7    11.6

Back to Bright Minor Planets

Astronomical Headlines Index

MPC


Valid HTML 4.01!